Regional Weather Roundup
Issued by NWS

Home | Current Version | Previous Version | Graphics & Text | Print | Product List | Glossary On
Versions: 1 2 3 4 5 6 7 8 9 10 11 12 13 14 15 16 17 18 19 20 21 22 23 24 25 26 27 28 29 30 31 32 33 34 35 36 37 38 39 40 41 42 43 44 45 46 47 48 49 50
000
ASUS43 KLSX 021107
RWRMO

WEATHER SUMMARY FOR MISSOURI
NATIONAL WEATHER SERVICE SPRINGFIELD MO
600 AM CDT MON MAY 02 2016

NOTE: "FAIR" INDICATES FEW OR NO CLOUDS BELOW 12,000 FEET WITH NO
       SIGNIFICANT WEATHER AND/OR OBSTRUCTIONS TO VISIBILITY.
       CURRENT SKY AND/OR WEATHER CONDITIONS ARE NOT AVAILABLE FOR
       CHILLICOTHE AND FARMINGTON.

MOZ001>031-035>038-043-044-053-054-021200-
...NORTHERN AND WESTERN MISSOURI...

CITY           SKY/WX    TMP DP  RH WIND       PRES   REMARKS
KANSAS CTY INT CLOUDY    48  44  86 NW6       30.09F
KANSAS C DTWN  CLOUDY    50  44  80 NW5       30.10S
LEE`S SUMMIT   CLOUDY    48  45  89 N6        30.09F
ST JOSEPH      CLOUDY    48  45  89 N7        30.11F
CHILLICOTHE      N/A     47  45  93 CALM      30.10S
KIRKSVILLE     CLOUDY    48  46  93 NW6       30.08S

$$
MOZ066>068-077>081-088>096-101>105-021200-
...SOUTHWEST MISSOURI...

CITY           SKY/WX    TMP DP  RH WIND       PRES   REMARKS
SPRINGFIELD    CLOUDY    51  46  83 N7        30.06S
JOPLIN         CLOUDY    50  46  86 N7        30.09F

$$
MOZ032>034-039>042-045>050-055>058-069>072-021200-
...CENTRAL MISSOURI...

CITY           SKY/WX    TMP DP  RH WIND       PRES   REMARKS
COLUMBIA       CLOUDY    50  45  83 N10       30.04F
JEFFERSON CITY CLOUDY    50  44  80 CALM      30.06S
ROLLA          CLOUDY    47  44  90 N5        30.03S
SEDALIA        CLOUDY    50  46  86 N10       30.08S
WARRENSBURG    CLOUDY    46  45  93 NW5       30.08F
OSAGE BEACH    CLOUDY    48  37  66 CALM      30.06R

$$
MOZ051-052-059>065-021200-
...EAST CENTRAL MISSOURI...

CITY           SKY/WX    TMP DP  RH WIND       PRES   REMARKS
ST LOUIS INTL  LGT RAIN  53  47  79 NW6       30.03R
SPIRIT OF STL  CLOUDY    52  48  87 N5        30.02F
ST CHARLES     LGT RAIN  51  48  89 N7        30.01F

$$
MOZ072>076-082>087-097>100-106>115-021200-
...SOUTH CENTRAL AND SOUTHEAST MISSOURI...

CITY           SKY/WX    TMP DP  RH WIND       PRES   REMARKS
CAPE GIRARDEAU CLEAR     54  49  83 N3        30.04R
FARMINGTON     PTCLDY    50  46  86 NW6       30.03F
POPLAR BLUFF   MOCLDY    55  48  77 N10       30.04S
WEST PLAINS    CLOUDY    50  43  77 N5        30.04F

$$



USA.gov is the U.S. government's official web portal to all federal, state and local government web resources and services.